Location: Pasadena, ca
(34.1243°N, 118.1037°W)
Time: 14:49:42
(UTC-07:00)

Vanguard 3 - All Passes

Search period start: 20 October 2017 00:00
Search period end: 30 October 2017 00:00
Orbit: 510 x 3263 km, 33.3° (Epoch: 19 October)

Date Brightness Start Highest point End Pass type
(mag) Time Alt. Az. Time Alt. Az. Time Alt. Az.
20 Oct - 00:33:29 10° SSE 00:39:20 12° SE 00:44:41 10° ESE visible
20 Oct - 02:39:18 10° SSW 02:54:33 35° SSE 03:04:53 10° E visible
20 Oct - 04:54:05 10° WSW 05:09:02 64° SSE 05:17:22 10° E visible
20 Oct - 07:11:22 10° W 07:22:22 86° S 07:28:20 10° E daylight
20 Oct - 09:27:32 10° W 09:34:24 56° SSW 09:38:43 10° ESE daylight
20 Oct - 11:44:20 10° SW 11:44:55 10° SW 11:45:30 10° SSW daylight
21 Oct - 01:25:04 10° SSW 01:38:53 25° SE 01:49:36 10° E visible
21 Oct - 03:37:26 10° SW 03:53:55 53° SSE 04:03:55 10° E visible
21 Oct - 05:54:17 10° WSW 06:08:00 81° S 06:15:25 10° E visible
21 Oct - 08:11:34 10° W 08:20:54 78° S 08:26:08 10° ESE daylight
21 Oct - 10:27:17 10° W 10:32:06 26° SSW 10:35:37 10° SSE daylight
22 Oct - 00:13:11 10° S 00:23:06 16° SE 00:31:52 10° ESE visible
22 Oct - 02:21:35 10° SSW 02:38:22 41° SSE 02:49:50 10° E visible
22 Oct - 04:37:02 10° WSW 04:53:10 71° SSE 05:02:15 10° E visible
22 Oct - 06:54:50 10° W 07:06:52 86° S 07:13:21 10° E daylight
22 Oct - 09:11:29 10° W 09:19:03 51° SSW 09:23:38 10° SE daylight
23 Oct - 01:06:58 10° SSW 01:22:32 31° SE 01:34:43 10° E visible
23 Oct - 03:20:08 10° SW 03:37:49 59° SSE 03:48:44 10° E visible
23 Oct - 05:37:30 10° WSW 05:52:19 84° S 06:00:21 10° E visible
23 Oct - 07:55:13 10° W 08:05:29 75° SSW 08:11:08 10° ESE daylight
23 Oct - 10:11:36 10° W 10:16:37 23° SW 10:20:14 10° SSE daylight
23 Oct - 23:54:17 10° S 00:06:40 20° SE 00:17:40 10° E visible
24 Oct - 02:04:04 10° SW 02:22:02 47° SSE 02:34:35 10° E visible
24 Oct - 04:20:01 10° WSW 04:37:14 76° SSE 04:47:05 10° E visible
24 Oct - 06:38:13 10° W 06:51:19 86° S 06:58:20 10° E visible
24 Oct - 08:55:21 10° W 09:03:36 47° SSW 09:08:30 10° SE daylight
24 Oct - 22:47:29 10° SE 22:50:55 11° SE 22:54:19 10° SE night (unlit)
25 Oct - 00:49:13 10° SSW 01:06:02 36° SE 01:19:31 10° E visible
25 Oct - 03:02:56 10° SW 03:21:36 65° SSE 03:33:25 10° E visible
25 Oct - 05:20:41 10° W 05:36:33 86° S 05:45:15 10° E visible
25 Oct - 07:38:45 10° W 07:49:58 71° SSW 07:56:06 10° ESE daylight
25 Oct - 09:55:51 10° W 10:01:02 21° SW 10:04:46 10° S daylight
25 Oct - 23:36:05 10° S 23:50:06 25° SE 00:02:50 10° E night (unlit)
26 Oct - 01:46:44 10° SW 02:05:34 53° SSE 02:19:11 10° E visible
26 Oct - 04:03:02 10° WSW 04:21:10 80° SSE 04:31:51 10° E visible
26 Oct - 06:21:32 10° W 06:35:40 84° S 06:43:16 10° E visible
26 Oct - 08:39:06 10° W 08:48:02 43° SSW 08:53:19 10° SE daylight
26 Oct - 22:26:16 10° SSE 22:34:24 14° SE 22:42:28 10° ESE night (unlit)
27 Oct - 00:31:46 10° SSW 00:49:23 41° SE 01:04:05 10° E visible
27 Oct - 02:45:52 10° WSW 03:05:15 71° SSE 03:18:02 10° E visible
27 Oct - 05:03:50 10° W 05:20:40 87° S 05:30:05 10° E visible
27 Oct - 07:22:11 10° W 07:34:22 66° SSW 07:41:00 10° ESE daylight
27 Oct - 09:40:03 10° W 09:45:20 19° SW 09:49:12 10° S daylight
27 Oct - 23:18:20 10° S 23:33:23 29° SE 23:47:35 10° E night (unlit)
28 Oct - 01:29:37 10° SW 01:48:59 59° SSE 02:03:39 10° E visible
28 Oct - 03:46:07 10° WSW 04:05:02 83° S 04:16:33 10° E visible
28 Oct - 06:04:46 10° W 06:19:55 82° S 06:28:10 10° ESE visible
28 Oct - 08:22:45 10° W 08:32:21 39° SW 08:38:04 10° SSE daylight
28 Oct - 22:07:25 10° SSE 22:17:45 17° SE 22:28:18 10° E visible
29 Oct - 00:14:34 10° SSW 00:32:38 46° SSE 00:48:28 10° E visible
29 Oct - 02:28:55 10° WSW 02:48:49 75° SSE 03:02:34 10° E visible
29 Oct - 04:46:59 10° W 05:04:42 87° S 05:14:53 10° E visible
29 Oct - 07:05:31 10° W 07:18:39 62° SSW 07:25:51 10° SE daylight
29 Oct - 09:24:14 10° W 09:29:33 17° SW 09:33:31 10° S daylight
29 Oct - 23:00:58 10° SSW 23:16:33 33° SE 23:32:01 10° E visible
